[[{"header":{"parameterUnit":"m.s-1","parameterCategory":1,"la1":30.2991,"la2":30.254,"lo1":-89.0895,"lo2":-89.0444,"dy":0.0017,"dx":0.0017,"nx":28,"ny":28,"refTime":"2023-08-02T09:00:00:Z","depth":0,"parameterNumber":2,"parameterNumberName":"U-component_of_WINDS"},"data":[0,0,0,0,0,0,0,0,0,0,0,0,0,0,0,0,0,0,0,0,0,0,0,0,0,0,0,0,0,0,0,0,0,0,0,0,0,0,0,0,0,0,0,0,0,0,0,0,0,0,0,0,0,0,0,0,0,0,1.1332,1.1332,0,1.1374,1.1374,1.1375,1.1383,1.1383,1.1382,1.1382,1.1423,1.1424,1.1425,0,0,0,0,0,0,0,0,0,0,0,0,0,1.1254,1.1256,1.1332,1.1332,1.1333,1.1374,1.1374,1.1375,1.1383,1.1383,1.1382,1.1382,1.1422,1.1424,1.1425,0,0,0,0,0,0,0,0,0,0,0,0,0,1.1291,1.1256,1.1332,1.1342,1.1343,1.1374,1.1374,1.1375,1.1383,1.1383,1.1382,1.1382,1.1422,1.1424,1.1426,1.1448,0,0,1.1432,1.1433,0,0,0,0,0,0,0,0,1.1289,1.1294,1.134,1.1341,1.1343,1.1373,1.1362,1.14,1.1383,1.1368,1.1382,1.1382,1.1406,1.141,1.1418,1.145,1.1452,1.1432,1.1433,1.1434,1.1435,0,0,0,0,0,0,0,1.1287,1.1292,1.1348,1.134,1.1342,1.1343,1.1348,1.1369,1.1389,1.1369,1.137,1.1375,1.1407,1.1416,1.1419,1.1452,1.1432,1.1434,1.1435,1.1436,1.1503,1.1503,0,0,0,0,0,0,1.1283,1.129,1.1347,1.135,1.1314,1.1345,1.135,1.1364,1.1389,1.1392,1.1375,1.1375,1.1413,1.1417,1.1421,1.1448,1.1434,1.1436,1.1437,1.1502,1.1503,1.1503,0,0,0,0,0,0,1.1281,1.1288,1.1345,1.132,1.1327,1.1347,1.1362,1.1365,1.1374,1.1394,1.1397,1.1382,1.1413,1.1418,1.1441,1.1449,1.1437,1.1439,1.1501,1.1502,1.1503,1.1502,0,0,0,0,0,0,1.1279,1.1287,1.1297,1.132,1.1329,1.1366,1.1362,1.1366,1.1378,1.1378,1.14,1.1404,1.1413,1.1438,1.1443,1.1452,1.1441,1.1501,1.1502,1.1503,1.1502,1.1503,1.1504,0,0,0,0,0,1.1276,1.1295,1.1297,1.1304,1.1342,1.1366,1.1371,1.1382,1.1379,1.1388,1.14,1.1403,1.1448,1.144,1.1446,1.1456,1.15,1.1502,1.1503,1.1501,1.1503,1.1504,0,0,0,0,0,0,1.1271,1.1298,1.1301,1.1328,1.1345,1.1368,1.138,1.1384,1.1401,1.1401,1.1413,1.1418,1.144,1.145,1.1441,1.1478,1.1474,1.1476,1.147,1.1472,1.1473,1.147,1.1442,0,0,0,0,0,1.1273,1.1292,1.1314,1.1336,1.1344,1.1361,1.1372,1.1379,1.1396,1.1403,1.1417,1.1433,1.1451,1.1462,1.1479,1.1503,1.1507,1.1513,1.1514,1.1515,1.1516,1.1528,1.1531,1.1507,1.1507,1.1507,0,0,1.1277,1.1295,1.1306,1.1335,1.1349,1.1367,1.1366,1.1386,1.1399,1.1406,1.1429,1.1439,1.1458,1.1481,1.1492,1.149,1.1524,1.1516,1.1517,1.1518,1.153,1.1532,1.1534,1.1508,1.1508,1.1508,0,0,1.1295,1.131,1.1329,1.1343,1.1364,1.1375,1.1379,1.1401,1.1409,1.1432,1.1437,1.1452,1.1483,1.1495,1.1506,1.1526,1.1529,1.1531,1.1537,1.1549,1.1551,1.1552,1.1559,1.1561,1.1533,1.1533,1.1533,0,1.1297,1.1326,1.1338,1.1358,1.137,1.1377,1.1396,1.1408,1.1433,1.1441,1.1439,1.1477,1.149,1.1515,1.152,1.1529,1.1533,1.1529,1.155,1.1551,1.1553,1.1559,1.1562,1.1533,1.1533,1.1533,1.1533,0,1.1327,1.1347,1.1359,1.1384,1.1398,1.1417,1.143,1.1442,1.1448,1.1458,1.1481,1.1497,1.1517,1.1523,1.1529,1.1549,1.1547,1.1547,1.1543,1.1555,1.1561,1.1563,1.1533,1.1533,1.1533,1.1533,0,0,1.1342,1.1374,1.1378,1.1389,1.1412,1.1427,1.1445,1.1465,1.1475,1.1492,1.1506,1.1531,1.1531,1.1543,1.155,1.156,1.1573,1.1558,1.1559,1.156,1.1595,1.1595,1.1597,1.1575,1.1576,1.1576,1.1593,0,1.1362,1.1396,1.1407,1.1435,1.1452,1.1459,1.1475,1.149,1.15,1.1515,1.1525,1.1542,1.1541,1.1548,1.1559,1.157,1.1581,1.1569,1.1588,1.1588,1.1583,1.1601,1.16,1.1616,1.1596,1.1596,1.1597,0,1.1389,1.1406,1.1436,1.1456,1.1464,1.1478,1.1497,1.1512,1.1528,1.1535,1.1547,1.1553,1.1571,1.1566,1.159,1.1581,1.159,1.1596,1.1597,1.1599,1.1593,1.1602,1.1621,1.1623,1.16,1.16,1.16,0,1.1395,1.1427,1.1448,1.1457,1.1482,1.1491,1.1501,1.1518,1.1529,1.1545,1.1552,1.157,1.1579,1.1592,1.1602,1.1597,1.1624,1.162,1.1629,1.1628,1.1634,1.1633,1.1654,1.164,1.164,1.164,1.164,0,1.1415,1.1433,1.1451,1.1465,1.1484,1.1496,1.1514,1.1525,1.1539,1.1553,1.156,1.1573,1.1586,1.16,1.1608,1.1626,1.163,1.1635,1.1636,1.1634,1.1633,1.1639,1.1638,1.1641,1.1641,1.1641,1.1641,0,1.1426,1.1439,1.1463,1.1484,1.149,1.1503,1.152,1.1532,1.1542,1.156,1.1565,1.158,1.1597,1.1608,1.163,1.1635,1.1654,1.1656,1.1648,1.1649,1.1657,1.1655,1.1681,1.1685,1.167,1.167,1.167,0,1.1437,1.1451,1.1474,1.1484,1.1495,1.1511,1.1523,1.1534,1.1546,1.1565,1.1575,1.1592,1.1607,1.1633,1.1645,1.1662,1.1663,1.1671,1.1666,1.1662,1.1662,1.1661,1.1662,1.1672,1.1672,1.1672,1.1672,0,1.1456,1.1461,1.1478,1.1497,1.151,1.1525,1.154,1.1548,1.1562,1.1574,1.1592,1.1604,1.1626,1.1642,1.1659,1.1669,1.1672,1.1674,1.1676,1.1674,1.1668,1.167,1.165,1.1673,1.1673,1.1673,1.1673,1.1673,1.1466,1.1478,1.1496,1.1514,1.1526,1.154,1.1552,1.1564,1.1579,1.1598,1.1604,1.1622,1.1637,1.1661,1.167,1.1684,1.1683,1.1687,1.1688,1.1689,1.1688,1.1667,1.1687,1.1687,1.1687,1.1687,1.1687,0,1.1484,1.1496,1.1512,1.1533,1.1547,1.155,1.1566,1.1577,1.1593,1.1608,1.1622,1.1642,1.1658,1.1671,1.1687,1.1695,1.1697,1.1699,1.1698,1.17,1.1688,1.1684,1.1697,1.1697,1.1697,1.1697,1.1697,1.1697,1.1495,1.1515,1.1523,1.1549,1.156,1.1578,1.1587,1.1599,1.1611,1.1633,1.1646,1.1655,1.1669,1.1686,1.17,1.1704,1.1709,1.171,1.1714,1.1702,1.1701,1.17,1.1696,1.1711,1.1711,1.1724,1.1724,1.1724]},{"header":{"parameterUnit":"m.s-1","parameterCategory":1,"la1":30.2991,"la2":30.254,"lo1":-89.0895,"lo2":-89.0444,"dy":0.0017,"dx":0.0017,"nx":28,"ny":28,"refTime":"2023-08-02T09:00:00:Z","depth":0,"parameterNumber":3,"parameterNumberName":"V-component_of_WINDS"},"data":[0,0,0,0,0,0,0,0,0,0,0,0,0,0,0,0,0,0,0,0,0,0,0,0,0,0,0,0,0,0,0,0,0,0,0,0,0,0,0,0,0,0,0,0,0,0,0,0,0,0,0,0,0,0,0,0,0,0,3.4301,3.43,0,3.4265,3.4264,3.4264,3.4177,3.4175,3.4173,3.4171,3.4136,3.4137,3.4138,0,0,0,0,0,0,0,0,0,0,0,0,0,3.4295,3.4295,3.4301,3.43,3.43,3.4265,3.4264,3.4264,3.4177,3.4175,3.4173,3.4171,3.4136,3.4137,3.4138,0,0,0,0,0,0,0,0,0,0,0,0,0,3.4282,3.4296,3.4301,3.4252,3.4248,3.4265,3.4264,3.4264,3.4178,3.4175,3.4172,3.417,3.4136,3.4137,3.4138,3.42,0,0,3.4141,3.4142,0,0,0,0,0,0,0,0,3.4283,3.4282,3.426,3.4256,3.425,3.4222,3.4249,3.4242,3.4178,3.4204,3.4171,3.4168,3.4167,3.4166,3.4165,3.4198,3.4197,3.4142,3.4142,3.4143,3.4143,0,0,0,0,0,0,0,3.4284,3.4284,3.4286,3.426,3.4254,3.4233,3.4228,3.4248,3.4202,3.4202,3.4195,3.4192,3.4164,3.4164,3.4163,3.4196,3.4141,3.4143,3.4143,3.4144,3.4278,3.428,0,0,0,0,0,0,3.4292,3.4285,3.4288,3.4285,3.426,3.4235,3.4229,3.4234,3.4201,3.4193,3.4195,3.4188,3.4163,3.4162,3.4162,3.4231,3.4143,3.4144,3.4144,3.4275,3.4278,3.4281,0,0,0,0,0,0,3.4292,3.4293,3.4289,3.4283,3.4281,3.4238,3.4244,3.4235,3.4235,3.4196,3.4187,3.4203,3.4161,3.416,3.4191,3.4229,3.4144,3.4145,3.4271,3.4276,3.428,3.4371,0,0,0,0,0,0,3.4292,3.4293,3.4316,3.4285,3.4282,3.4319,3.4246,3.4236,3.4237,3.4228,3.4201,3.4194,3.4159,3.419,3.4192,3.4229,3.4146,3.4268,3.4273,3.4278,3.4365,3.4378,3.439,0,0,0,0,0,3.4292,3.4344,3.4318,3.4319,3.431,3.4321,3.4319,3.4278,3.424,3.4263,3.4238,3.4195,3.4225,3.4193,3.4195,3.4233,3.4265,3.4272,3.4278,3.4359,3.4376,3.439,0,0,0,0,0,0,3.4382,3.4339,3.431,3.4353,3.4341,3.4306,3.4334,3.4297,3.4296,3.4288,3.4236,3.4231,3.4268,3.4254,3.422,3.4291,3.4238,3.4245,3.4299,3.4314,3.4327,3.4329,3.4147,0,0,0,0,0,3.4407,3.442,3.4381,3.4423,3.4419,3.4378,3.4381,3.435,3.4336,3.433,3.4307,3.4296,3.4302,3.4308,3.4311,3.4363,3.4355,3.439,3.4402,3.4413,3.4419,3.4444,3.4459,3.4302,3.4302,3.4302,0,0,3.4459,3.4437,3.4448,3.4441,3.4428,3.4442,3.4374,3.4392,3.4402,3.4333,3.436,3.4343,3.4327,3.4367,3.4384,3.4357,3.4461,3.4421,3.443,3.443,3.4452,3.4467,3.448,3.4307,3.4306,3.4305,0,0,3.4559,3.4545,3.4577,3.4565,3.4547,3.4519,3.4527,3.4497,3.4483,3.4509,3.4458,3.4469,3.4482,3.4471,3.4468,3.4565,3.4525,3.4568,3.4633,3.4658,3.467,3.4681,3.4714,3.4727,3.4575,3.4575,3.4575,0,3.4626,3.4645,3.4599,3.4619,3.4617,3.4556,3.4588,3.4579,3.4563,3.4563,3.4533,3.4546,3.4531,3.4568,3.4591,3.4591,3.4598,3.457,3.4672,3.4682,3.4691,3.4723,3.4735,3.458,3.4579,3.4579,3.4578,0,3.4727,3.4741,3.4769,3.4754,3.4756,3.4782,3.474,3.4748,3.4716,3.4692,3.4719,3.4698,3.4696,3.4703,3.4673,3.4736,3.4719,3.4681,3.4626,3.4712,3.4741,3.4752,3.4587,3.4585,3.4584,3.4583,0,0,3.4883,3.4842,3.4853,3.4845,3.4819,3.4829,3.4853,3.4851,3.4857,3.4849,3.4867,3.4879,3.4843,3.4839,3.4808,3.483,3.4906,3.4788,3.4787,3.481,3.4973,3.5001,3.5015,3.488,3.4882,3.4884,3.4974,0,3.4976,3.5014,3.4973,3.5019,3.5031,3.4972,3.4993,3.498,3.4957,3.4964,3.494,3.4948,3.4901,3.4899,3.4918,3.4893,3.4938,3.4886,3.4896,3.4897,3.4901,3.503,3.506,3.5146,3.4985,3.4986,3.4988,0,3.509,3.5086,3.5133,3.5104,3.5107,3.5126,3.512,3.5128,3.5112,3.5094,3.509,3.5051,3.5072,3.502,3.5048,3.5014,3.5016,3.5004,3.5006,3.5005,3.4947,3.5031,3.5172,3.5185,3.5005,3.5004,3.5002,0,3.5198,3.5204,3.5232,3.5228,3.5195,3.5209,3.5196,3.5177,3.5178,3.5173,3.5173,3.5171,3.517,3.517,3.5131,3.5097,3.5164,3.5109,3.515,3.5151,3.5166,3.5165,3.5308,3.5169,3.5169,3.5169,3.5168,0,3.5306,3.5337,3.528,3.5298,3.533,3.5283,3.5317,3.5298,3.5282,3.5295,3.5244,3.5258,3.5207,3.5215,3.5186,3.5213,3.5213,3.5199,3.519,3.5203,3.5204,3.5202,3.5195,3.5172,3.5171,3.5171,3.517,0,3.5431,3.5395,3.5421,3.5388,3.538,3.5406,3.5377,3.5392,3.5366,3.5383,3.5384,3.5344,3.5351,3.5313,3.5313,3.5293,3.5335,3.5317,3.534,3.5334,3.5376,3.5373,3.5522,3.5539,3.5391,3.5392,3.5394,0,3.5502,3.5524,3.5493,3.5497,3.5487,3.5495,3.5495,3.545,3.5453,3.5435,3.5452,3.5455,3.5454,3.5467,3.5438,3.5438,3.5419,3.5471,3.5418,3.543,3.5418,3.5417,3.5418,3.5482,3.5484,3.5485,3.5487,0,3.5631,3.5612,3.5614,3.561,3.5611,3.5606,3.5597,3.5604,3.5555,3.5561,3.5566,3.5566,3.5565,3.5568,3.5562,3.5548,3.5509,3.5504,3.5513,3.5525,3.5537,3.553,3.5369,3.55,3.5499,3.5498,3.5497,3.5497,3.573,3.5747,3.5727,3.5731,3.5719,3.5712,3.5724,3.57,3.5704,3.5699,3.5673,3.5683,3.5666,3.5653,3.5644,3.5651,3.5626,3.564,3.5643,3.5647,3.5654,3.5537,3.565,3.565,3.5649,3.5649,3.5649,0,3.5856,3.584,3.5844,3.5833,3.5836,3.5799,3.5787,3.5792,3.5802,3.5789,3.5789,3.5795,3.5798,3.5769,3.5768,3.5779,3.5761,3.578,3.5778,3.5776,3.5677,3.5669,3.5795,3.5795,3.5795,3.5795,3.5795,3.5795,3.5921,3.5947,3.5925,3.5945,3.5928,3.5938,3.5934,3.5927,3.5917,3.5926,3.5927,3.5908,3.5889,3.5885,3.5886,3.5877,3.5879,3.5904,3.5889,3.5797,3.5783,3.5769,3.5761,3.5905,3.5905,3.5987,3.5988,3.5988]}]]